{"data":{"norad_id":52122,"intl_designator":"2022-029AL","name":"STARLINK-3726","alt_names":[],"object_type":"PAYLOAD","status":"ACTIVE","operator":null,"country":"US","launch_date":"2022-03-19","launch_site_code":"AFETR","launch_vehicle":null,"mission":null,"orbit_class":"UNKNOWN","rcs_meters":null,"size_class":null,"mass_kg":null,"dimensions":null,"purposes":["comms"],"wikipedia_slug":null,"has_3d_model":false,"image_url":null,"decayed_at":null,"tle_current":{"epoch":"2026-05-25T03:54:50.982048Z","epoch_age_seconds":67930,"freshness":"FRESH","line1":"1 52122U 22029AL  26145.16309007  .00000382  00000+0  42068-4 0  9997","line2":"2 52122  53.2124  95.8187 0001423  85.2388 274.8766 15.08834856232334","mean_motion":15.08834856,"eccentricity":0.0001423,"inclination_deg":53.2124,"raan_deg":95.8187,"arg_perigee_deg":85.2388,"mean_anomaly_deg":274.8766,"bstar":4.2068e-5,"rev_number":23233,"period_min":95.437880048551,"perigee_km":538.77469554212,"apogee_km":540.74352877565,"semimajor_km":6917.8961121589,"source":"CELESTRAK","updated_at":"2026-05-25T13:38:17.075904Z"}}}